Paso Robles, CA

2:36 AM PDT on August 25, 2016 (GMT -0700)
Paso Robles Municipal

Weather History for KPRB - January, 2013

Change the Weather History Date:

Monday, January 28, 2013

  Actual Average Record
Temperature  
Mean Temperature 43 °F 48 °F  
Max Temperature 56 °F 60 °F 76 °F (1976)
Min Temperature 30 °F 36 °F 17 °F (1975)
Degree Days  
Heating Degree Days 22 17  
Month to date heating degree days 541 501  
Since 1 July heating degree days 1480 1625  
Cooling Degree Days 0 0  
Month to date cooling degree days 0 0  
Year to date cooling degree days 0 0  
Moisture  
Dew Point 36 °F    
Average Humidity 74    
Maximum Humidity 100    
Minimum Humidity 47    
Precipitation  
Precipitation 0.00 in 0.08 in 0.46 in (1981)
Month to date precipitation 0.69 2.47  
Year to date precipitation 0.69 2.47  
Since 1 July precipitation 3.90  
Sea Level Pressure  
Sea Level Pressure 30.20 in    
Wind  
Wind Speed 6 mph (NW)    
Max Wind Speed 16 mph    
Max Gust Speed 59 mph    
Visibility 10 miles    
Events      
T = Trace of Precipitation, MM = Missing Value Source: NWS Daily Summary

Daily Weather History Graph

Daily Weather History Graph

Search for Another Location

Airport or City:

Trip Planner

Search our weather history database for the weather conditions in past years. The results will help you decide how hot, cold, wet, or windy it might be!

Date:

Astronomy

Jan. 28, 2013 Rise Set
Actual Time 7:05 AM PST 5:26 PM PST
Civil Twilight 6:38 AM PST 5:53 PM PST
Nautical Twilight 6:07 AM PST 6:24 PM PST
Astronomical Twilight 5:37 AM PST 6:54 PM PST
Moon 7:20 PM PST (1/28) 7:38 AM PST (1/28)
Length of Visible Light 11h 15m
Length of Day
10h 21m
Full, 97% of the Moon is Illuminated
Jan 28
Full
Feb 3
Last Quarter
Feb 9
New
Feb 17
First Quarter
Feb 25
Full

Hourly Weather History & Observations

Time (PST) Temp. Windchill Dew Point Humidity Pressure Visibility Wind Dir Wind Speed Gust Speed Precip Events Conditions
12:53 AM 39.9 °F 35.8 °F 36.0 °F 86% 30.14 in 10.0 mi NNW 5.8 mph - N/A   Clear
1:53 AM 39.0 °F 35.7 °F 36.0 °F 89% 30.15 in 10.0 mi NW 4.6 mph - N/A   Clear
2:53 AM 37.0 °F - 35.1 °F 93% 30.16 in 10.0 mi Calm Calm - N/A   Clear
3:53 AM 36.0 °F 32.1 °F 33.1 °F 89% 30.16 in 10.0 mi NW 4.6 mph - N/A   Clear
4:19 AM 35.6 °F 27.1 °F 33.8 °F 93% 30.14 in 10.0 mi WSW 12.7 mph 58.7 mph N/A   Squalls
4:53 AM 34.0 °F - 33.1 °F 96% 30.15 in 10.0 mi Calm Calm - N/A   Clear
5:53 AM 32.0 °F - 30.9 °F 96% 30.17 in 10.0 mi Calm Calm - N/A   Clear
6:53 AM 30.9 °F - 30.0 °F 96% 30.19 in 10.0 mi Calm Calm - N/A   Clear
7:53 AM 32.0 °F - 30.9 °F 96% 30.20 in 10.0 mi Calm Calm - N/A   Clear
8:53 AM 39.0 °F - 36.0 °F 89% 30.21 in 10.0 mi Calm Calm - N/A   Clear
9:53 AM 43.0 °F 38.8 °F 37.9 °F 82% 30.22 in 10.0 mi NNW 6.9 mph - N/A   Partly Cloudy
10:53 AM 48.0 °F - 37.0 °F 66% 30.22 in 10.0 mi NNW 11.5 mph - N/A   Clear
11:53 AM 52.0 °F - 37.9 °F 59% 30.20 in 10.0 mi NW 15.0 mph - N/A   Clear
12:53 PM 54.0 °F - 37.0 °F 53% 30.18 in 10.0 mi NW 13.8 mph 21.9 mph N/A   Clear
1:53 PM 55.0 °F - 37.0 °F 51% 30.16 in 10.0 mi NNW 16.1 mph - N/A   Clear
2:53 PM 55.0 °F - 36.0 °F 49% 30.17 in 10.0 mi NW 12.7 mph - N/A   Clear
3:53 PM 55.9 °F - 37.0 °F 49% 30.18 in 10.0 mi NW 13.8 mph - N/A   Overcast
4:53 PM 55.0 °F - 37.0 °F 51% 30.18 in 10.0 mi NW 16.1 mph - N/A   Overcast
5:53 PM 51.1 °F - 37.0 °F 59% 30.21 in 10.0 mi North 10.4 mph - N/A   Partly Cloudy
6:53 PM 48.9 °F - 37.9 °F 66% 30.24 in 10.0 mi North 10.4 mph - N/A   Clear
7:53 PM 46.0 °F 43.1 °F 37.9 °F 73% 30.25 in 10.0 mi NE 5.8 mph - N/A   Clear
8:53 PM 45.0 °F - 37.9 °F 76% 30.27 in 10.0 mi Calm Calm - N/A   Clear
9:53 PM 42.1 °F 40.2 °F 37.0 °F 82% 30.26 in 10.0 mi WSW 3.5 mph - N/A   Clear
10:53 PM 37.9 °F 35.5 °F 35.1 °F 89% 30.27 in 10.0 mi ESE 3.5 mph - N/A   Clear
11:53 PM 37.9 °F - 37.0 °F 97% 30.27 in 10.0 mi Calm Calm - N/A   Partly Cloudy